Weather History for Delaware, OH

Change the Weather History Date:

Sunday, December 2, 2012

  Actual Average Record
Temperature  
Mean Temperature 52 °F -  
Max Temperature 53 °F 43 °F 67 °F (1970)
Min Temperature 50 °F 26 °F 4 °F (1966)
Degree Days  
Heating Degree Days 14    
Growing Degree Days 2 (Base 50)    
Moisture  
Dew Point 48 °F    
Average Humidity 86    
Maximum Humidity 100    
Minimum Humidity 67    
Precipitation  
Precipitation 0.16 in - - ()
Sea Level Pressure  
Sea Level Pressure 30.09 in    
Wind  
Wind Speed 10 mph (SSW)    
Max Wind Speed 16 mph    
Max Gust Speed 24 mph    
Visibility 6 miles    
Events Fog , Rain    
Averages and records for this station are not official NWS values.
T = Trace of Precipitation, MM = Missing Value Source: NWS Daily Summary

Daily Weather History Graph

Daily Weather History Graph

Search for Another Location

Airport:

Trip Planner

Search our weather history database for the weather conditions in past years. The results will help you decide how hot, cold, wet, or windy it might be!

Date:

Astronomy

Dec. 02, 2012 Rise Set
Actual Time 7:37 AM EST 5:06 PM EST
Civil Twilight 7:07 AM EST 5:36 PM EST
Nautical Twilight 6:33 AM EST 6:10 PM EST
Astronomical Twilight 6:00 AM EST 6:43 PM EST
Moon 8:53 PM EST (12/2) 10:26 AM EST (12/2)
Length of Visible Light 10h 29m
Length of Day
9h 29m
Waning Gibbous, 86% of the Moon is Illuminated
Dec 2
Waning Gibbous
Dec 6
Last Quarter
Dec 13
New
Dec 20
First Quarter
Dec 28
Full

Hourly Weather History & Observations

Time (EST) Temp. Dew Point Humidity Pressure Visibility Wind Dir Wind Speed Gust Speed Precip Events Conditions
12:19 AM 50.0 °F 41.0 °F 71% 30.15 in 10.0 mi South 9.2 mph - N/A   Overcast
12:39 AM 50.0 °F 41.0 °F 71% 30.15 in 10.0 mi South 10.4 mph - N/A   Overcast
12:59 AM 50.0 °F 41.0 °F 71% 30.15 in 10.0 mi South 10.4 mph - N/A   Overcast
1:19 AM 51.8 °F 42.8 °F 71% 30.14 in 10.0 mi South 10.4 mph - N/A   Mostly Cloudy
1:39 AM 51.8 °F 42.8 °F 71% 30.13 in 10.0 mi South 10.4 mph - N/A   Mostly Cloudy
1:59 AM 51.8 °F 42.8 °F 71% 30.13 in 10.0 mi South 11.5 mph - N/A   Overcast
2:19 AM 53.6 °F 42.8 °F 67% 30.12 in 10.0 mi SSW 15.0 mph - N/A   Overcast
2:39 AM 51.8 °F 42.8 °F 71% 30.12 in 10.0 mi SSW 15.0 mph 24.2 mph N/A Rain Rain
2:59 AM 51.8 °F 44.6 °F 76% 30.12 in 10.0 mi South 10.4 mph 17.3 mph N/A   Light Drizzle
3:19 AM 51.8 °F 44.6 °F 76% 30.11 in 10.0 mi South 10.4 mph 18.4 mph N/A   Overcast
3:39 AM 51.8 °F 44.6 °F 76% 30.10 in 10.0 mi South 10.4 mph - N/A   Mostly Cloudy
3:59 AM 51.8 °F 44.6 °F 76% 30.10 in 10.0 mi South 10.4 mph - N/A   Overcast
4:19 AM 51.8 °F 44.6 °F 76% 30.09 in 10.0 mi South 11.5 mph - N/A   Overcast
4:39 AM 51.8 °F 44.6 °F 76% 30.08 in 10.0 mi South 13.8 mph - N/A   Overcast
4:59 AM 53.6 °F 44.6 °F 72% 30.07 in 10.0 mi South 13.8 mph 18.4 mph N/A   Overcast
5:19 AM 53.6 °F 44.6 °F 72% 30.07 in 10.0 mi SSW 15.0 mph 19.6 mph N/A   Overcast
5:39 AM 53.6 °F 44.6 °F 72% 30.07 in 10.0 mi SSW 13.8 mph 18.4 mph N/A   Scattered Clouds
6:00 AM 53.6 °F 44.6 °F 72% 30.07 in 10.0 mi SSW 10.4 mph 17.3 mph N/A   Mostly Cloudy
6:19 AM 53.6 °F 44.6 °F 72% 30.07 in 10.0 mi SSW 11.5 mph 18.4 mph N/A Rain Light Rain
6:39 AM 53.6 °F 44.6 °F 72% 30.06 in 10.0 mi SSW 15.0 mph 19.6 mph N/A Rain Light Rain
7:00 AM 53.6 °F 44.6 °F 72% 30.05 in 10.0 mi South 16.1 mph 21.9 mph N/A   Scattered Clouds
7:19 AM 53.6 °F 44.6 °F 72% 30.05 in 10.0 mi South 13.8 mph 19.6 mph N/A   Mostly Cloudy
7:39 AM 53.6 °F 44.6 °F 72% 30.06 in 10.0 mi SSW 12.7 mph 23.0 mph N/A   Overcast
8:00 AM 53.6 °F 44.6 °F 72% 30.07 in 10.0 mi SW 15.0 mph 19.6 mph N/A Rain Rain
8:19 AM 51.8 °F 44.6 °F 76% 30.08 in 5.0 mi SSW 11.5 mph - 0.05 in Rain Rain
8:39 AM 50.0 °F 46.4 °F 87% 30.08 in 5.0 mi SSW 10.4 mph - 0.08 in Rain Rain
8:59 AM 50.0 °F 46.4 °F 87% 30.08 in 7.0 mi SSW 13.8 mph 21.9 mph 0.10 in Rain Rain
9:19 AM 50.0 °F 46.4 °F 87% 30.07 in 5.0 mi SSW 12.7 mph 17.3 mph 0.03 in Rain Light Rain
9:39 AM 50.0 °F 46.4 °F 87% 30.07 in 7.0 mi SSW 13.8 mph - 0.03 in Rain Light Rain
9:59 AM 50.0 °F 46.4 °F 87% 30.07 in 7.0 mi SSW 15.0 mph 24.2 mph 0.04 in Rain Light Rain
10:19 AM 50.0 °F 48.2 °F 94% 30.08 in 4.0 mi SSW 12.7 mph - 0.02 in Rain Rain
10:39 AM 50.0 °F 48.2 °F 94% 30.08 in 4.0 mi SSW 11.5 mph 17.3 mph 0.02 in Rain Light Rain
11:19 AM 50.0 °F 48.2 °F 94% 30.07 in 5.0 mi SSW 12.7 mph 17.3 mph N/A   Overcast
11:39 AM 50.0 °F 48.2 °F 94% 30.07 in 3.0 mi SSW 11.5 mph - N/A   Overcast
11:59 AM 50.0 °F 48.2 °F 94% 30.07 in 1.8 mi SSW 11.5 mph - N/A   Light Drizzle
12:19 PM 50.0 °F 50.0 °F 100% 30.06 in 4.0 mi SSW 13.8 mph 17.3 mph N/A   Overcast
12:39 PM 51.8 °F 50.0 °F 94% 30.06 in 10.0 mi SW 13.8 mph - N/A   Overcast
12:59 PM 51.8 °F 50.0 °F 94% 30.05 in 10.0 mi SSW 11.5 mph 17.3 mph N/A   Overcast
1:19 PM 51.8 °F 50.0 °F 94% 30.05 in 10.0 mi SSW 12.7 mph - N/A   Overcast
1:40 PM 51.8 °F 50.0 °F 94% 30.05 in 10.0 mi SW 11.5 mph 18.4 mph N/A   Overcast
1:59 PM 53.6 °F 50.0 °F 88% 30.05 in 7.0 mi SW 11.5 mph - N/A   Overcast
2:19 PM 53.6 °F 50.0 °F 88% 30.04 in 7.0 mi SW 9.2 mph - N/A   Overcast
2:40 PM 53.6 °F 50.0 °F 88% 30.04 in 5.0 mi SW 11.5 mph - N/A   Drizzle
2:59 PM 53.6 °F 51.8 °F 94% 30.04 in 5.0 mi SW 9.2 mph - N/A   Overcast
3:19 PM 53.6 °F 51.8 °F 94% 30.05 in 5.0 mi SW 9.2 mph - N/A   Overcast
3:40 PM 53.6 °F 51.8 °F 94% 30.06 in 4.0 mi SW 9.2 mph - N/A   Overcast
3:59 PM 53.6 °F 51.8 °F 94% 30.06 in 4.0 mi SW 9.2 mph - N/A   Overcast
4:19 PM 53.6 °F 51.8 °F 94% 30.07 in 4.0 mi SW 8.1 mph - N/A   Overcast
4:40 PM 53.6 °F 51.8 °F 94% 30.07 in 4.0 mi SW 8.1 mph - N/A   Overcast
4:59 PM 53.6 °F 51.8 °F 94% 30.07 in 3.0 mi SW 9.2 mph - N/A   Overcast
5:19 PM 53.6 °F 51.8 °F 94% 30.08 in 2.5 mi SW 9.2 mph - N/A   Overcast
5:39 PM 53.6 °F 51.8 °F 94% 30.08 in 1.5 mi SW 9.2 mph - N/A   Overcast
5:59 PM 53.6 °F 51.8 °F 94% 30.08 in 1.2 mi SW 8.1 mph - N/A   Overcast
6:19 PM 53.6 °F 51.8 °F 94% 30.09 in 1.2 mi SW 8.1 mph - N/A   Overcast
6:39 PM 53.6 °F 51.8 °F 94% 30.09 in 1.0 mi SSW 5.8 mph - N/A   Overcast
6:59 PM 53.6 °F 51.8 °F 94% 30.10 in 0.8 mi SSW 5.8 mph - N/A   Overcast
7:19 PM 53.6 °F 51.8 °F 94% 30.10 in 1.0 mi SSW 6.9 mph - N/A   Overcast
7:39 PM 53.6 °F 51.8 °F 94% 30.11 in 1.2 mi SSW 6.9 mph - N/A   Overcast
7:59 PM 53.6 °F 51.8 °F 94% 30.12 in 1.8 mi SW 3.5 mph - N/A   Overcast
8:19 PM 53.6 °F 51.8 °F 94% 30.12 in 2.0 mi SW 3.5 mph - N/A   Overcast
8:39 PM 53.6 °F 51.8 °F 94% 30.13 in 1.8 mi WSW 3.5 mph - N/A   Overcast
8:59 PM 53.6 °F 51.8 °F 94% 30.14 in 1.5 mi SW 3.5 mph - N/A   Overcast
9:19 PM 53.6 °F 51.8 °F 94% 30.14 in 1.8 mi SSW 3.5 mph - N/A   Overcast
9:39 PM 53.6 °F 51.8 °F 94% 30.14 in 1.5 mi SSW 4.6 mph - N/A   Overcast
9:59 PM 53.6 °F 51.8 °F 94% 30.14 in 2.0 mi South 4.6 mph - N/A   Overcast
10:20 PM 53.6 °F 51.8 °F 94% 30.14 in 2.0 mi SSW 4.6 mph - N/A   Overcast
10:39 PM 53.6 °F 51.8 °F 94% 30.14 in 1.8 mi SSW 4.6 mph - N/A   Overcast
10:59 PM 53.6 °F 51.8 °F 94% 30.13 in 1.0 mi SSW 4.6 mph - N/A   Overcast
11:20 PM 53.6 °F 51.8 °F 94% 30.13 in 0.8 mi SW 6.9 mph - N/A   Overcast
11:39 PM 53.6 °F 51.8 °F 94% 30.13 in 0.2 mi Calm Calm - N/A Fog Fog
11:59 PM 53.6 °F 53.6 °F 100% 30.14 in 0.2 mi Calm Calm - N/A Fog Fog